Kezdőlap
METAR-TAF:

METAR-TAF

Repülőterek :

Forlì repülőtér

Forlì, Olaszország

földrajzi szélesség: 44-12N, földrajzi hosszúság: 012-04E, magasság: 27 m

Jelenlegi meteorológiai megfigyelések

A jelentés 24 perccel ezelõtt készült, 12:50 UTC
Észak-északnyugati szél 5 kt
Hőmérséklet 12°C
Páratartalom 76%
Légköri nyomás 1024 hPa
Látótávolság: 2500 m
Párásság

METAR: LIPK 181250Z 33005KT 2500 BR VV/// 12/08 Q1024

Idő: 14:14 (13:14 UTC)


TAF: hiányzik

Meteorológiai megfigyelések és előrejelzések több, mint 4000 repülőtéren (METAR és TAF jelentéseket).

A térképen piros és sárga pontok jelzik az elérhető meteorológiai állomásokat.

Mozgassa az egeret a pont fölött, hogy megjelenjen az állomás neve.

Azután kattintson az időjárási megfigyelések és előrejelzések megtekintéséhez.

A térkép megváltoztatása: kattintson a fekete keresztel jelölt zöld gombra ráközelítéshez, a vonallal jelölt zöld gombra távolításhoz, vagy a zöld nyilakra a szomszédos térképek eléréséhez.


METAR-TAF: